Portada
METAR-TAF:

METAR-TAF

Aeroports :

Leigh Creek, Austràlia

latitud: 30-35-54S, longitud: 138-25-36E, altitud: 261 m

Observació

L'informe es va fer fa 1 hora i 17 minuts, a les 19:00 UTC
Vent 5 kt del Sud/Sud-Oest
Temperatura 14°C
Humitat 44%
Pressió 1019 hPa

METAR: YLEC 131900Z AUTO 20005KT //// // ////// 14/02 Q1019

Hora: 06:47 (20:17 UTC)


TAF: manca

Observacions i pronòstics meteorològics de més de 4000 aeroports (METAR i TAF).

Les estacions disponibles són els punts grocs i vermells al mapa.

Posi el ratolí al punt desitjat per veure el nom de l'estació.

Feu clic per veure les observacions i els pronòstics meteorològics.

Per canviar el mapa: feu clic els botons verds amb una creu de color negre per apropar; al botó verd amb un guió per allunyar la imatge; o en les fletxes verdes per a mapes adjacents.


METAR-TAF: